Location: Rottenacker
(48.2350°N, 9.6886°E)
Time: 20:13:48
(UTC+02:00)

OTV 5 (USA 277) - Visible Passes

Search period start: 22 April 2018 00:00
Search period end: 02 May 2018 00:00
Orbit: 310 x 323 km, 54.5° (Epoch: 21 April)

Date Brightness Start Highest point End Pass type
(mag) Time Alt. Az. Time Alt. Az. Time Alt. Az.
22 Apr ? 21:06:20 10° WSW 21:09:02 55° NNW 21:11:43 10° NE visible
22 Apr ? 22:41:32 10° WNW 22:43:45 21° N 22:44:46 17° NNE visible
23 Apr ? 21:21:04 10° W 21:23:34 32° NNW 21:26:05 10° NE visible
23 Apr ? 22:56:16 10° NW 22:58:25 21° N 22:58:47 20° NNE visible
24 Apr ? 21:35:54 10° WNW 21:38:12 23° N 21:40:29 10° NE visible
24 Apr ? 23:10:49 10° NW 23:12:42 22° N 23:12:42 22° N visible
25 Apr ? 21:50:42 10° NW 21:52:52 21° N 21:55:02 10° NE visible
25 Apr ? 23:25:14 10° NW 23:26:33 22° NNW 23:26:33 22° NNW visible
26 Apr ? 22:05:20 10° NW 22:07:33 21° N 22:09:30 12° ENE visible
26 Apr ? 23:39:36 10° NW 23:40:22 17° NW 23:40:22 17° NW visible
27 Apr ? 22:19:49 10° NW 22:22:12 26° NNE 22:23:18 20° NE visible
27 Apr ? 23:54:01 10° WNW 23:54:09 11° WNW 23:54:09 11° WNW visible
28 Apr ? 22:34:12 10° NW 22:36:48 40° NNE 22:37:05 38° NE visible
29 Apr ? 21:14:23 10° NW 21:16:41 23° N 21:18:57 10° ENE visible
29 Apr ? 22:48:35 10° WNW 22:50:52 58° NW 22:50:52 58° NW visible
30 Apr ? 21:28:48 10° NW 21:31:18 31° NNE 21:33:47 10° E visible
30 Apr ? 23:03:05 10° WNW 23:04:41 28° W 23:04:41 28° W visible
01 May ? 21:43:10 10° NW 21:45:51 54° NNE 21:47:39 18° E visible
01 May ? 23:17:55 10° W 23:18:31 13° W 23:18:31 13° W visible
